Weather History for Rocky Mount, NC

Change the Weather History Date:

Monday, January 6, 2014

  Actual Average Record
Temperature  
Mean Temperature 44 °F -  
Max Temperature 64 °F 46 °F 73 °F (1998)
Min Temperature 21 °F 29 °F 10 °F (1988)
Degree Days  
Heating Degree Days 20    
Moisture  
Dew Point 42 °F    
Average Humidity 75    
Maximum Humidity 97    
Minimum Humidity 36    
Precipitation  
Precipitation 0.06 in - - ()
Sea Level Pressure  
Sea Level Pressure 29.77 in    
Wind  
Wind Speed 12 mph (WSW)    
Max Wind Speed 21 mph    
Max Gust Speed 32 mph    
Visibility 9 miles    
Events Rain    
Averages and records for this station are not official NWS values.
T = Trace of Precipitation, MM = Missing Value Source: NWS Daily Summary

Daily Weather History Graph

Daily Weather History Graph

Search for Another Location

Airport:

Trip Planner

Search our weather history database for the weather conditions in past years. The results will help you decide how hot, cold, wet, or windy it might be!

Date:

Astronomy

Jan. 06, 2014 Rise Set
Actual Time 7:22 AM EST 5:12 PM EST
Civil Twilight 6:54 AM EST 5:41 PM EST
Nautical Twilight 6:22 AM EST 6:12 PM EST
Astronomical Twilight 5:51 AM EST 6:43 PM EST
Moon 10:48 AM EST (1/6) 11:30 PM EST (1/6)
Length of Visible Light 10h 47m
Length of Day
9h 50m
Waxing Crescent, 34% of the Moon is Illuminated
Jan 6
Waxing Crescent
Jan 7
First Quarter
Jan 15
Full
Jan 24
Last Quarter
Jan 30
New

Hourly Weather History & Observations

Time (EST) Temp. Windchill Dew Point Humidity Pressure Visibility Wind Dir Wind Speed Gust Speed Precip Events Conditions
12:38 AM 60.1 °F - 59.0 °F 96% 29.77 in 2.5 mi South 8.1 mph - N/A   Overcast
12:45 AM 60.1 °F - 59.0 °F 96% 29.77 in 4.0 mi South 8.1 mph - N/A   Overcast
12:53 AM 61.0 °F - 60.1 °F 97% 29.76 in 5.0 mi South 8.1 mph - N/A   Overcast
1:42 AM 62.1 °F - 60.1 °F 93% 29.73 in 10.0 mi South 9.2 mph - N/A   Overcast
1:53 AM 62.1 °F - 60.1 °F 93% 29.72 in 9.0 mi South 10.4 mph - N/A   Overcast
2:53 AM 62.1 °F - 60.1 °F 93% 29.70 in 10.0 mi South 13.8 mph - N/A   Overcast
3:53 AM 62.1 °F - 60.1 °F 93% 29.68 in 10.0 mi South 15.0 mph 23.0 mph N/A   Overcast
4:35 AM 63.0 °F - 59.0 °F 87% 29.66 in 10.0 mi South 15.0 mph 24.2 mph N/A   Overcast
4:53 AM 63.0 °F - 59.0 °F 87% 29.65 in 10.0 mi South 13.8 mph 24.2 mph N/A   Overcast
5:18 AM 63.0 °F - 59.0 °F 87% 29.64 in 10.0 mi South 15.0 mph 25.3 mph N/A   Overcast
5:53 AM 64.0 °F - 59.0 °F 84% 29.65 in 10.0 mi SSW 20.7 mph 28.8 mph 0.00 in   Overcast
6:53 AM 64.0 °F - 57.9 °F 80% 29.65 in 10.0 mi SSW 18.4 mph 28.8 mph N/A   Overcast
7:32 AM 63.0 °F - 57.0 °F 81% 29.64 in 10.0 mi SSW 16.1 mph 25.3 mph N/A   Overcast
7:42 AM 63.0 °F - 57.0 °F 81% 29.64 in 10.0 mi SSW 11.5 mph 27.6 mph N/A   Overcast
7:53 AM 63.0 °F - 57.0 °F 81% 29.65 in 10.0 mi SSW 17.3 mph 26.5 mph N/A   Overcast
8:53 AM 63.0 °F - 57.0 °F 81% 29.65 in 10.0 mi SSW 13.8 mph 21.9 mph N/A   Overcast
9:40 AM 55.0 °F - 51.1 °F 86% 29.69 in 2.5 mi WNW 13.8 mph 32.2 mph 0.00 in Rain Rain
9:50 AM 51.8 °F - 48.2 °F 88% 29.70 in 4.0 mi West 15.0 mph 23.0 mph 0.03 in Rain Light Rain
9:53 AM 52.0 °F - 48.9 °F 89% 29.72 in 6.0 mi West 16.1 mph 23.0 mph 0.03 in Rain Light Rain
10:31 AM 48.9 °F - 46.0 °F 90% 29.72 in 10.0 mi WNW 13.8 mph 23.0 mph 0.01 in   Overcast
10:38 AM 48.9 °F - 45.0 °F 86% 29.72 in 10.0 mi WNW 12.7 mph - 0.01 in Rain Light Rain
10:53 AM 46.9 °F - 44.1 °F 90% 29.73 in 5.0 mi WNW 12.7 mph 21.9 mph 0.02 in Rain Light Rain
11:02 AM 46.9 °F - 44.1 °F 90% 29.72 in 4.0 mi WNW 12.7 mph 21.9 mph 0.00 in Rain Light Rain
11:40 AM 46.0 °F 41.4 °F 42.1 °F 86% 29.72 in 10.0 mi West 9.2 mph 21.9 mph 0.01 in   Overcast
11:53 AM 46.0 °F 40.2 °F 42.1 °F 86% 29.72 in 10.0 mi West 12.7 mph 17.3 mph 0.01 in   Overcast
12:53 PM 46.0 °F 41.0 °F 39.0 °F 76% 29.72 in 10.0 mi NW 10.4 mph - N/A   Overcast
1:27 PM 46.0 °F 39.9 °F 37.9 °F 73% 29.72 in 10.0 mi WNW 13.8 mph - N/A   Overcast
1:53 PM 46.9 °F - 37.0 °F 68% 29.73 in 10.0 mi WNW 10.4 mph - N/A   Mostly Cloudy
2:53 PM 48.9 °F - 32.0 °F 52% 29.74 in 10.0 mi West 13.8 mph 21.9 mph N/A   Partly Cloudy
3:53 PM 46.0 °F 41.0 °F 26.1 °F 46% 29.79 in 10.0 mi WNW 10.4 mph 21.9 mph N/A   Clear
4:53 PM 42.1 °F 34.5 °F 18.0 °F 38% 29.84 in 10.0 mi West 15.0 mph 27.6 mph N/A   Clear
5:53 PM 39.0 °F 32.3 °F 18.0 °F 43% 29.88 in 10.0 mi WNW 10.4 mph 24.2 mph N/A   Clear
6:53 PM 37.0 °F 27.4 °F 16.0 °F 42% 29.93 in 10.0 mi WNW 17.3 mph 23.0 mph N/A   Clear
7:53 PM 34.0 °F 24.6 °F 15.1 °F 46% 29.97 in 10.0 mi WNW 13.8 mph 19.6 mph N/A   Clear
8:53 PM 32.0 °F 23.0 °F 10.0 °F 40% 30.02 in 10.0 mi WNW 11.5 mph 25.3 mph N/A   Clear
9:53 PM 28.9 °F 18.2 °F 5.0 °F 36% 30.07 in 10.0 mi West 13.8 mph 24.2 mph N/A   Clear
10:53 PM 25.0 °F 12.2 °F 5.0 °F 43% 30.12 in 10.0 mi NW 16.1 mph 24.2 mph N/A   Clear
11:53 PM 21.0 °F 5.7 °F -2.0 °F 36% 30.16 in 10.0 mi WNW 19.6 mph 27.6 mph N/A   Clear